Location: Kearney
(40.6990°N, 99.0810°W)
Time: 21:43:23
(UTC-05:00)

Meteor 1-23 Rocket - Pass Details

Date: 18 December 2017
Orbit: 837 x 889 km, 81.3° (Epoch: 23 April)

Event Time Altitude Azimuth Distance (km) Brightness Sun altitude
Rises 17:55:14 0° 173° (S) 3,465 7.6 -8.3°
Reaches altitude 10° 17:57:44 10° 168° (SSE) 2,524 6.8 -8.7°
Maximum altitude 18:03:16 52° 94° (E) 1,078 4.4 -9.7°
Drops below altitude 10° 18:08:46 10° 20° (NNE) 2,508 6.3 -10.6°
Sets 18:11:14 0° 15° (NNE) 3,441 7.0 -11.1°
